User: anonymous   Login
Location: Albany
(35.0000°S, 118.0000°E)
Time: 12:44:12
(UTC-05:00)
Language:

Radarsat Rocket - Orbit

View from above orbital plane
View from above orbital plane
View from above satellite
View from above satellite

Ground track
Ground track

The orbit data is extracted from the following two-line orbital elements,

1 23711U 95059B   14327.47676861  .00000135  00000-0  35954-3 0  8148
2 23711 100.4663 310.3542 0367545 279.7507 193.4857 13.12654053912897
Epoch (UTC): 23 November 2014 11:26:32
Eccentricity: 0.0367545
inclination: 100.4663°
perigee height: 934 km
apogee height: 1492 km
right ascension of ascending node: 310.3542°
argument of perigee: 279.7507°
revolutions per day: 13.12654053
mean anomaly at epoch: 193.4857°
orbit number at epoch: 91289

The dashed part of the orbit path shows where the satellite is in the earth's shadow,  

DLR